Location: Izdebno
(52.6670°N, 16.2170°E)
Time: 11:54:42
(UTC+01:00)

Tiros 1 - All Passes

Search period start: 28 January 2023 00:00
Search period end: 07 February 2023 00:00
Orbit: 628 x 662 km, 48.4° (Epoch: 28 January)

Date Brightness Start Highest point End Pass type
(mag) Time Alt. Az. Time Alt. Az. Time Alt. Az.
28 Jan - 02:31:50 10° S 02:35:03 19° SE 02:38:19 10° ESE visible
28 Jan - 04:12:02 10° SW 04:16:26 42° SSE 04:20:53 10° E visible
28 Jan - 05:53:39 10° W 05:58:12 50° S 06:02:47 10° ESE visible
28 Jan - 07:35:43 10° W 07:39:51 30° SSW 07:44:00 10° SE daylight
28 Jan - 09:20:07 10° SW 09:20:57 10° SW 09:21:45 10° SSW daylight
29 Jan - 02:56:03 10° SW 03:00:03 29° SSE 03:04:06 10° E visible
29 Jan - 04:37:08 10° WSW 04:41:40 50° S 04:46:14 10° E visible
29 Jan - 06:18:59 10° W 06:23:26 43° SSW 06:27:55 10° ESE visible
29 Jan - 08:01:26 10° W 08:04:52 20° SSW 08:08:18 10° SSE daylight
30 Jan - 01:40:47 10° S 01:43:50 17° SE 01:46:54 10° ESE night (unlit)
30 Jan - 03:20:49 10° SW 03:25:10 40° SSE 03:29:34 10° E visible
30 Jan - 05:02:23 10° WSW 05:06:55 51° S 05:11:30 10° ESE visible
30 Jan - 06:44:24 10° W 06:48:35 32° SSW 06:52:47 10° SE visible
30 Jan - 08:28:14 10° WSW 08:29:44 11° SW 08:31:13 10° SSW daylight
31 Jan - 02:04:53 10° SSW 02:08:48 27° SSE 02:12:46 10° E night (unlit)
31 Jan - 03:45:53 10° WSW 03:50:23 49° S 03:54:56 10° E visible
31 Jan - 05:27:42 10° W 05:32:09 44° SSW 05:36:39 10° ESE visible
31 Jan - 07:10:05 10° W 07:13:37 21° SSW 07:17:10 10° SSE daylight
01 Feb - 00:49:45 10° S 00:52:36 16° SE 00:55:27 10° ESE night (unlit)
01 Feb - 02:29:35 10° SW 02:33:54 39° SSE 02:38:15 10° E visible
01 Feb - 04:11:07 10° WSW 04:15:38 51° S 04:20:12 10° ESE visible
01 Feb - 05:53:06 10° W 05:57:19 33° SSW 06:01:33 10° SE visible
01 Feb - 07:36:35 10° WSW 07:38:30 12° SW 07:40:25 10° SSW daylight
02 Feb - 01:13:43 10° SSW 01:17:32 26° SSE 01:21:24 10° E night (unlit)
02 Feb - 02:54:37 10° WSW 02:59:06 48° S 03:03:37 10° E visible
02 Feb - 04:36:25 10° W 04:40:52 45° SSW 04:45:22 10° ESE visible
02 Feb - 06:18:43 10° W 06:22:21 22° SSW 06:26:01 10° SSE visible
02 Feb - 23:58:45 10° S 00:01:22 15° SE 00:03:59 10° ESE night (unlit)
03 Feb - 01:38:21 10° SW 01:42:37 37° SSE 01:46:55 10° E night (unlit)
03 Feb - 03:19:50 10° WSW 03:24:20 51° S 03:28:53 10° ESE visible
03 Feb - 05:01:48 10° W 05:06:02 35° SSW 05:10:18 10° SE visible
03 Feb - 06:45:01 10° WSW 06:47:15 13° SW 06:49:29 10° S visible
04 Feb - 00:22:33 10° SSW 00:26:16 24° SSE 00:30:02 10° E night (unlit)
04 Feb - 02:03:21 10° WSW 02:07:48 47° S 02:12:17 10° E night (unlit)
04 Feb - 03:45:07 10° W 03:49:34 46° S 03:54:04 10° ESE visible
04 Feb - 05:27:22 10° W 05:31:05 24° SSW 05:34:49 10° SSE visible
04 Feb - 23:07:46 10° S 23:10:07 14° SE 23:12:28 10° ESE night (unlit)
05 Feb - 00:47:07 10° SW 00:51:20 36° SSE 00:55:35 10° E night (unlit)
05 Feb - 02:28:32 10° WSW 02:33:02 51° S 02:37:34 10° ESE visible
05 Feb - 04:10:29 10° W 04:14:45 36° SSW 04:19:02 10° SE visible
05 Feb - 05:53:30 10° WSW 05:56:00 14° SW 05:58:30 10° S visible
05 Feb - 23:31:23 10° SSW 23:35:00 23° SSE 23:38:39 10° E night (unlit)
06 Feb - 01:12:04 10° WSW 01:16:30 46° S 01:20:57 10° E night (unlit)
06 Feb - 02:53:48 10° W 02:58:16 47° S 03:02:46 10° ESE visible
06 Feb - 04:36:01 10° W 04:39:49 25° SSW 04:43:38 10° SSE visible
06 Feb - 22:16:51 10° SSE 22:18:51 13° SE 22:20:53 10° ESE night (unlit)
